Weather History for Medford, OR

Change the Weather History Date:

Monday, November 7, 2011

  Actual Average Record
Temperature  
Mean Temperature 44 °F 47 °F  
Max Temperature 52 °F 57 °F 74 °F (1930)
Min Temperature 35 °F 38 °F 22 °F (1920)
Degree Days  
Heating Degree Days 21 18  
Month to date heating degree days 149 117  
Since 1 July heating degree days 419 477  
Cooling Degree Days 0 0  
Month to date cooling degree days 0 0  
Year to date cooling degree days 783 829  
Moisture  
Dew Point 36 °F    
Average Humidity 72    
Maximum Humidity 93    
Minimum Humidity 50    
Precipitation  
Precipitation 0.00 in 0.09 in 1.05 in (1942)
Month to date precipitation 0.77 0.56  
Year to date precipitation 14.26 12.40  
Snow  
Snow 0.00 in 0.00 in - ()
Month to date snowfall 0.0 0.0  
Since 1 July snowfall 0.0 0.0  
Snow Depth 0.00 in    
Sea Level Pressure  
Sea Level Pressure 30.28 in    
Wind  
Wind Speed 2 mph (North)    
Max Wind Speed 8 mph    
Max Gust Speed 13 mph    
Visibility 10 miles    
Events      
T = Trace of Precipitation, MM = Missing Value Source: NWS Daily Summary

Daily Weather History Graph

Daily Weather History Graph

Search for Another Location

Airport:

Trip Planner

Search our weather history database for the weather conditions in past years. The results will help you decide how hot, cold, wet, or windy it might be!

Date:

Astronomy

Nov. 07, 2011 Rise Set
Actual Time 6:52 AM PST 4:57 PM PST
Civil Twilight 6:22 AM PST 5:27 PM PST
Nautical Twilight 5:48 AM PST 6:00 PM PST
Astronomical Twilight 5:16 AM PST 6:33 PM PST
Moon 3:13 PM PST (11/7) 3:57 AM PST (11/7)
Length of Visible Light 11h 04m
Length of Day
10h 05m
Waxing Gibbous, 92% of the Moon is Illuminated
Nov 7
Waxing Gibbous
Nov 10
Full
Nov 18
Last Quarter
Nov 24
New
Dec 2
First Quarter

Hourly Weather History & Observations

Time (PST) Temp. Windchill Dew Point Humidity Pressure Visibility Wind Dir Wind Speed Gust Speed Precip Events Conditions
12:53 AM 41.0 °F - 37.9 °F 89% 30.25 in 10.0 mi Calm Calm - N/A   Overcast
1:53 AM 41.0 °F 39.0 °F 39.0 °F 93% 30.25 in 10.0 mi NNE 3.5 mph - N/A   Overcast
2:00 AM 41.0 °F 39.0 °F 37.4 °F 87% 30.23 in 10.0 mi NNE 3.5 mph 151.9 mph N/A   Squalls
2:10 AM 41.0 °F - 37.4 °F 87% 30.23 in 10.0 mi Calm Calm - N/A   Overcast
2:17 AM 41.0 °F - 37.4 °F 87% 30.23 in 10.0 mi Calm Calm - N/A   Overcast
2:53 AM 41.0 °F - 37.9 °F 89% 30.26 in 10.0 mi Calm Calm - N/A   Overcast
3:31 AM 41.0 °F - 37.4 °F 87% 30.24 in 10.0 mi Calm Calm - N/A   Overcast
3:53 AM 41.0 °F - 37.0 °F 86% 30.25 in 10.0 mi Calm Calm - N/A   Overcast
4:14 AM 41.0 °F 39.0 °F 37.4 °F 87% 30.24 in 10.0 mi NNW 3.5 mph - N/A   Overcast
4:53 AM 41.0 °F - 37.4 °F 87% 30.25 in 10.0 mi Calm Calm - N/A   Overcast
5:22 AM 39.2 °F - 37.4 °F 93% 30.25 in 10.0 mi Calm Calm - N/A   Overcast
5:40 AM 39.2 °F - 37.4 °F 93% 30.25 in 10.0 mi Calm Calm - N/A   Overcast
5:53 AM 39.9 °F - 37.9 °F 93% 30.27 in 10.0 mi Calm Calm - N/A   Overcast
6:53 AM 39.2 °F 37.0 °F 37.4 °F 93% 30.27 in 10.0 mi NE 3.5 mph - N/A   Overcast
7:09 AM 39.2 °F - 37.4 °F 93% 30.27 in 10.0 mi Calm Calm - N/A   Overcast
7:53 AM 39.9 °F - 37.0 °F 89% 30.31 in 10.0 mi Calm Calm - N/A   Overcast
8:53 AM 42.1 °F 40.2 °F 39.0 °F 89% 30.31 in 10.0 mi NNE 3.5 mph - N/A   Overcast
9:53 AM 45.0 °F 43.5 °F 37.9 °F 76% 30.31 in 10.0 mi NNW 3.5 mph - N/A   Mostly Cloudy
10:53 AM 46.9 °F - 37.0 °F 68% 30.31 in 10.0 mi North 4.6 mph - N/A   Mostly Cloudy
11:13 AM 48.2 °F - 35.6 °F 62% 30.29 in 10.0 mi North 3.5 mph - N/A   Scattered Clouds
11:25 AM 48.2 °F - 35.6 °F 62% 30.29 in 10.0 mi Calm Calm - N/A   Mostly Cloudy
11:53 AM 48.0 °F - 36.0 °F 63% 30.30 in 10.0 mi Calm Calm - N/A   Mostly Cloudy
12:53 PM 48.9 °F - 33.1 °F 54% 30.29 in 10.0 mi Calm Calm - N/A   Mostly Cloudy
1:00 PM 51.8 °F - 33.8 °F 50% 30.27 in 10.0 mi Calm Calm - N/A   Mostly Cloudy
1:53 PM 50.0 °F - 34.0 °F 54% 30.28 in 10.0 mi NNW 4.6 mph - N/A   Mostly Cloudy
2:53 PM 51.8 °F - 33.8 °F 50% 30.26 in 10.0 mi NNE 6.9 mph - N/A   Scattered Clouds
3:53 PM 50.0 °F - 33.1 °F 52% 30.28 in 10.0 mi WNW 5.8 mph - N/A   Scattered Clouds
4:53 PM 48.9 °F - 33.1 °F 54% 30.28 in 10.0 mi Calm Calm - N/A   Scattered Clouds
5:53 PM 44.6 °F 43.1 °F 35.6 °F 71% 30.27 in 10.0 mi South 3.5 mph - N/A   Clear
6:53 PM 43.0 °F 38.8 °F 35.1 °F 74% 30.30 in 10.0 mi South 6.9 mph - N/A   Overcast
7:53 PM 41.0 °F - 33.1 °F 73% 30.30 in 10.0 mi Calm Calm - N/A   Clear
8:53 PM 37.0 °F - 33.1 °F 86% 30.31 in 10.0 mi Calm Calm - N/A   Clear
9:53 PM 37.9 °F 35.5 °F 34.0 °F 86% 30.32 in 10.0 mi NNE 3.5 mph - N/A   Clear
10:53 PM 36.0 °F - 33.1 °F 89% 30.32 in 10.0 mi Calm Calm - N/A   Clear
11:53 PM 35.1 °F - 32.0 °F 89% 30.32 in 9.0 mi Calm Calm - N/A   Clear